Temperature
22 21 21 21 21 20 20 20 20 19 19 19 18 18 18 18 18 17 17 17 17 17 17 17 17 17 17 17 17 17 17 17 17 17 17 17 17 17 17 16 16 16 16
21 21 21 20 20 20 20 20 20 19 19 19 19 18 18 18 18 17 17 17 17 17 17 17 17 17 17 17 17 17 16 16 16 16 16 16 17 17 17 17 16 16 16
21 21 21 21 20 20 20 20 20 19 19 18 18 18 17 17 17 17 17 17 17 17 17 17 17 17 17 17 17 17 16 16 16 16 16 17 17 17 17 17 17 17 16
21 21 21 21 20 20 20 20 19 19 19 19 18 18 17 17 18 18 18 17 17 17 17 17 17 17 17 17 17 17 16 16 16 16 16 17 17 17 17 17 17 17 17
21 21 21 21 21 20 20 20 19 19 19 19 18 18 18 18 17 17 18 17 17 17 17 17 17 17 17 17 17 16 16 16 16 16 16 16 17 17 17 17 17 17 17
21 21 21 21 20 20 20 19 19 19 18 18 18 18 18 17 17 17 17 17 17 17 17 17 17 17 17 17 17 16 16 16 16 16 16 16 16 17 17 17 17 17 17
21 21 21 20 20 20 20 19 19 18 18 18 18 18 18 18 17 17 17 17 17 17 17 17 17 17 17 17 16 16 16 16 16 16 16 16 16 16 16 16 17 17 17
20 20 20 20 20 20 20 19 19 19 18 18 18 18 17 17 18 17 17 17 17 17 17 17 17 17 17 17 16 16 16 16 16 16 16 16 16 16 16 16 16 16 16
19 20 20 20 20 19 19 19 19 18 18 18 17 17 17 17 17 17 17 17 17 17 17 17 17 17 17 16 16 16 16 16 16 16 16 16 16 16 16 16 16 16 16
19 19 19 20 20 19 19 19 18 18 18 17 17 17 17 17 17 17 17 17 17 17 17 17 17 17 16 16 16 16 16 16 16 16 16 16 16 16 16 16 16 16 16
19 19 19 19 19 19 19 18 18 18 17 17 17 17 17 17 17 17 17 17 17 17 17 17 17 16 16 16 16 16 16 15 15 15 15 15 15 15 15 15 15 15 15
18 19 19 19 19 19 18 18 18 18 17 17 17 17 17 17 17 17 17 16 16 16 17 16 16 16 16 16 16 16 16 15 15 15 15 15 15 15 15 15 15 15 15
18 19 19 19 19 19 18 18 18 18 17 17 17 17 17 17 17 17 16 16 16 16 16 16 16 16 16 16 16 16 15 15 15 15 15 15 15 15 15 15 15 15 15
18 18 19 19 19 18 18 18 18 17 17 17 17 16 16 17 17 16 16 16 16 16 16 16 16 16 16 16 16 16 15 15 15 15 15 15 15 15 15 15 15 15 14
17 18 18 18 18 18 18 18 18 17 17 17 16 16 16 16 16 16 16 16 16 16 16 16 16 16 16 16 16 16 15 15 15 15 15 15 15 15 15 14 14 14 14
17 18 18 18 18 18 18 17 18 17 17 17 16 16 16 16 16 16 16 16 16 16 16 16 16 16 16 16 16 16 15 15 15 15 15 15 15 15 14 14 14 14 14
17 17 17 18 18 18 18 18 17 17 17 17 17 16 16 16 16 16 16 16 16 16 16 16 16 16 16 16 16 16 15 15 15 15 15 15 15 15 14 14 14 14 14
17 17 17 17 17 17 17 17 17 17 17 17 17 16 16 16 16 16 16 16 16 16 16 16 16 16 16 16 16 15 15 15 15 15 15 15 14 14 14 14 14 14 14
17 17 17 17 17 17 17 17 17 17 17 17 17 17 16 16 16 16 16 16 16 16 16 16 15 15 15 15 15 15 15 15 15 15 14 14 14 14 14 13 13 13 14
16 16 17 17 17 17 17 17 17 16 16 16 16 16 16 16 16 16 16 16 15 15 15 15 15 15 15 15 15 15 15 14 14 14 14 14 14 14 13 13 13 13 13
15 16 16 16 16 16 16 16 16 16 16 16 16 16 16 16 16 16 16 15 15 15 15 15 15 15 15 14 14 14 14 14 14 14 14 13 13 13 13 13 13 13 13
15 15 15 15 15 15 16 16 16 16 16 16 16 16 16 16 16 15 15 15 15 15 14 14 14 14 14 14 14 14 14 13 13 13 13 13 12 12 12 12 12 12 12
14 15 15 15 15 15 15 15 15 15 15 15 15 15 15 15 15 15 14 14 14 14 14 13 13 13 13 13 13 13 13 13 12 12 12 12 12 12 11 11 11 11 11
13 14 14 14 14 14 14 14 15 15 15 15 15 14 14 14 14 14 14 14 13 13 13 13 13 12 12 12 12 12 12 12 11 11 11 11 11 11 10 10 10 10 10
13 13 13 13 13 14 14 14 14 14 14 14 14 14 14 13 13 13 13 13 12 12 12 12 12 12 12 11 11 11 11 11 11 11 11 10 10 10 10 10 9 9 9
12 12 12 12 13 13 13 13 13 13 14 13 13 13 13 13 12 12 12 11 11 11 11 11 11 11 11 11 11 11 11 11 10 10 10 10 9 9 9 9 8 8 8
Wind_Speed
10 10 12 14 14 13 14 14 14 14 12 10 10 9 9 8 7 8 12 13 13 13 10 6 6 6 5 5 5 3 3 2 2 3 2 2 2 1 2 3 3 5 6
8 9 11 12 15 16 15 15 15 15 14 12 10 7 7 6 7 6 9 13 13 13 12 8 7 7 5 5 5 4 3 2 2 3 2 1 2 2 1 2 4 5 5
10 10 10 12 13 14 16 15 15 15 14 12 8 6 4 3 5 6 7 10 13 13 12 11 8 7 7 6 6 6 6 4 1 1 3 3 3 2 2 2 3 3 4
8 8 9 10 12 13 12 13 14 14 14 14 12 13 10 8 8 8 7 8 12 13 13 12 10 8 7 7 7 6 4 5 3 1 1 2 3 2 1 2 2 3 5
7 8 9 10 10 10 11 11 12 13 14 15 16 15 11 8 6 7 9 9 8 10 12 12 10 8 7 7 7 6 5 4 5 4 2 2 1 1 2 2 2 2 3
6 7 7 7 7 8 9 10 12 13 13 15 15 16 15 12 11 10 10 9 7 7 10 11 10 9 7 7 7 7 7 5 5 4 4 4 3 3 3 3 3 2 2
5 6 6 7 6 7 8 9 12 12 13 14 15 15 15 14 14 12 12 10 7 7 10 9 8 8 7 8 7 7 6 6 6 6 4 4 3 3 3 3 2 2 2
3 4 5 6 6 7 7 8 10 11 12 13 13 12 12 10 10 11 10 11 9 9 10 10 10 9 9 8 7 6 6 6 6 7 5 4 4 4 4 4 3 2 1
3 4 5 5 6 6 6 7 8 7 9 11 11 11 11 11 11 11 10 9 8 8 10 10 10 9 9 9 8 6 6 6 6 6 6 4 4 4 4 3 4 4 3
3 3 4 4 4 3 3 5 6 7 7 9 9 10 10 11 11 10 11 10 10 9 10 10 10 9 8 8 7 6 6 6 5 4 6 5 4 4 4 4 3 3 4
2 3 3 4 4 4 3 4 5 6 7 8 8 8 9 9 10 10 11 11 10 10 11 11 10 9 9 9 8 7 7 7 6 5 6 6 5 4 4 3 3 4 4
2 2 3 3 4 4 4 4 4 5 6 6 6 7 8 9 10 10 11 11 11 10 10 10 10 10 9 9 9 9 9 8 8 7 6 6 5 5 4 4 4 4 4
3 3 3 3 3 4 4 3 3 4 5 5 6 6 7 8 9 9 10 10 10 10 10 10 10 10 9 9 9 9 9 9 9 8 8 7 6 6 5 5 5 4 4
3 3 3 2 2 3 3 3 2 3 4 5 6 6 7 7 8 8 8 9 10 10 10 9 9 9 9 9 9 9 8 8 8 8 8 8 8 7 7 6 6 5 4
2 2 2 2 2 2 2 3 3 3 4 4 5 5 5 6 6 6 7 8 8 9 8 8 8 8 8 8 9 9 9 9 8 7 7 7 8 9 8 6 6 6 5
1 1 1 1 1 2 2 2 3 3 4 4 4 4 5 6 6 6 6 6 6 6 7 7 7 7 6 8 11 10 8 7 7 7 6 5 6 8 9 9 8 8 7
2 1 0 1 1 2 2 2 3 3 4 4 4 4 5 6 6 7 7 6 5 5 5 5 6 6 5 7 9 10 7 6 6 6 5 5 5 6 5 6 7 8 9
3 2 1 1 1 1 1 2 3 4 4 4 4 4 5 5 5 6 6 6 5 5 4 4 4 4 3 6 7 8 6 5 5 5 5 5 4 4 5 4 4 5 6
2 2 2 2 2 2 2 3 3 4 4 3 3 4 5 5 6 6 5 5 5 5 4 4 4 3 1 3 6 7 4 4 3 3 3 3 3 3 5 4 5 5 5
4 4 4 5 4 3 3 4 4 3 2 2 2 3 4 5 6 6 5 5 5 5 5 4 3 3 1 2 2 6 4 4 3 2 1 2 2 2 2 4 4 4 4
6 6 6 6 5 4 4 5 4 3 2 3 4 4 4 5 5 5 5 6 6 6 5 5 4 4 3 4 4 4 3 4 3 1 1 1 2 2 1 2 2 3 2
8 7 7 7 6 6 6 7 6 4 5 6 6 6 6 5 6 7 6 6 7 7 6 5 5 4 5 6 6 7 5 4 4 2 1 2 4 4 3 2 1 1 1
7 7 8 8 8 7 7 8 5 6 8 9 9 8 9 8 8 8 7 7 6 6 6 5 5 5 5 5 8 8 7 7 5 4 6 7 7 6 5 6 5 3 3
7 7 9 10 9 8 8 7 6 7 10 11 10 9 10 10 10 9 7 7 6 6 6 6 5 5 4 4 4 4 5 6 5 4 6 8 9 7 6 6 5 4 4
8 8 9 9 9 8 9 8 7 9 11 11 10 10 10 10 11 11 10 9 8 6 6 5 5 5 5 4 5 5 4 4 4 5 6 6 6 6 6 5 5 5 4
9 9 10 9 9 9 10 8 8 9 11 10 9 8 8 9 9 10 12 17 14 17 15 11 9 7 7 8 10 11 11 10 9 8 6 6 5 5 5 5 5 5 5
Wind_Direction
201 185 186 182 180 182 184 185 184 180 177 180 180 183 190 187 188 192 188 188 189 186 180 180 170 166 166 168 153 132 124 109 111 91 50 16 11 278 237 226 223 226 226
180 180 181 183 186 187 189 187 189 185 184 189 185 186 180 184 189 188 187 190 190 186 188 180 178 173 163 162 161 148 137 130 141 132 112 40 344 326 259 224 225 230 225
188 184 180 184 185 190 191 192 192 190 188 182 169 162 147 145 174 186 189 191 191 189 189 186 179 176 172 177 178 167 156 157 152 146 147 156 211 270 309 261 236 229 223
178 180 185 186 192 195 192 192 191 192 187 179 178 178 183 189 193 189 187 185 190 191 191 186 182 179 178 179 182 174 165 154 162 156 132 151 155 159 265 309 276 249 235
181 184 190 192 194 191 191 191 190 193 189 185 187 187 190 191 179 175 179 183 187 191 191 186 183 181 182 181 178 170 171 168 165 165 156 139 110 134 162 246 286 281 248
181 181 181 180 186 186 189 187 189 196 191 189 191 192 190 183 176 182 186 188 186 190 190 186 185 185 184 183 182 178 178 181 173 172 168 166 166 180 174 201 238 260 275
173 174 172 172 184 188 187 187 190 196 192 193 195 194 192 188 187 188 190 189 188 193 193 189 186 186 187 185 178 176 183 184 182 184 190 190 189 167 167 173 204 246 283
163 175 179 173 181 191 189 187 191 197 192 194 196 192 190 191 193 192 189 191 195 195 187 186 188 187 183 183 177 179 187 187 193 196 188 191 197 184 178 174 168 200 276
147 165 166 164 170 185 190 187 190 191 191 193 192 193 192 193 194 191 188 190 190 189 182 185 187 186 183 180 174 182 187 185 195 196 192 195 199 197 198 186 179 177 214
150 157 161 158 159 168 180 177 178 187 195 194 196 199 198 193 192 189 188 189 188 184 179 183 184 183 184 180 176 179 183 182 191 188 187 197 198 199 196 195 195 190 192
167 165 163 144 130 124 143 161 169 177 183 189 191 192 192 191 188 190 190 188 185 181 180 181 182 184 186 182 182 188 184 187 192 192 192 204 195 197 198 192 189 193 186
153 152 147 132 127 131 139 157 168 175 181 182 184 188 185 187 191 193 190 184 183 183 181 179 183 189 190 187 188 194 191 190 193 197 196 207 199 200 200 195 199 200 196
122 126 127 125 137 138 142 156 167 175 173 174 178 179 179 183 188 188 182 180 182 181 179 181 188 191 192 192 194 195 195 198 199 198 201 208 199 207 206 204 207 208 203
116 116 115 114 121 131 141 149 152 144 150 162 174 178 181 180 180 180 177 178 180 179 181 187 191 193 193 195 196 196 198 202 204 203 204 206 203 208 207 209 211 205 201
107 120 125 123 122 124 132 133 131 128 142 154 165 175 173 166 162 163 169 172 175 178 180 183 189 191 192 200 197 197 200 201 202 203 206 211 209 210 208 210 208 201 204
95 120 110 122 153 164 150 136 132 135 139 152 165 161 158 157 159 162 163 167 170 170 171 182 187 190 199 199 195 194 197 197 200 205 210 216 218 219 216 216 209 201 207
52 75 177 189 189 197 171 159 149 139 143 146 146 152 159 163 163 162 160 166 168 164 168 179 180 187 195 190 191 191 189 194 200 203 206 217 221 213 219 221 220 221 222
50 42 32 44 60 99 119 133 138 139 144 144 150 154 156 159 156 155 159 159 153 156 161 161 169 174 190 185 185 180 181 184 193 199 204 212 228 228 217 223 230 238 239
50 48 49 74 76 85 107 121 119 127 133 148 160 164 161 158 154 160 156 148 141 139 135 132 141 148 171 181 178 171 170 178 193 199 202 207 228 246 221 218 233 252 264
42 48 58 69 73 78 91 112 112 112 122 139 140 147 154 158 159 157 146 137 136 138 130 117 111 118 94 58 158 169 167 173 181 173 180 187 203 233 210 215 226 247 268
49 51 60 62 56 61 87 94 88 82 77 86 90 96 119 131 135 129 123 125 126 122 116 108 91 80 66 57 76 140 163 172 164 163 141 84 111 109 108 181 214 235 240
56 57 65 59 49 56 79 82 68 60 75 81 80 81 88 102 109 111 111 113 118 116 112 106 92 74 65 62 69 86 98 111 121 122 104 86 91 87 75 84 76 69 77
59 59 70 65 51 48 67 77 62 67 77 77 75 75 79 79 82 92 96 95 98 103 100 96 87 69 57 52 57 70 80 87 97 88 85 81 76 68 60 52 50 53 65
60 62 69 66 53 47 56 64 67 75 82 80 77 77 79 76 71 71 73 81 83 93 95 95 91 81 65 48 40 59 76 80 88 83 71 69 67 66 55 47 47 50 54
66 66 70 67 57 53 54 54 61 76 80 78 78 78 80 84 78 71 62 68 59 76 93 91 90 88 74 45 61 81 78 86 96 92 73 63 58 55 49 45 43 40 38
70 70 68 67 62 61 57 51 59 79 87 83 78 80 83 85 89 90 78 62 67 65 66 70 81 71 74 77 78 77 73 73 86 86 73 66 61 55 45 39 32 30 26
Height
1477 1482 1486 1490 1495 1499 1502 1506 1509 1514 1519 1522 1526 1530 1534 1538 1542 1546 1549 1552 1555 1558 1560 1563 1565 1567 1569 1572 1574 1575 1577 1579 1580 1581 1583 1584 1585 1586 1587 1588 1589 1590 1590
1475 1479 1483 1487 1490 1494 1498 1502 1506 1510 1513 1518 1522 1527 1531 1535 1540 1543 1547 1550 1553 1556 1559 1561 1563 1566 1568 1570 1572 1574 1576 1577 1579 1581 1582 1583 1585 1585 1586 1586 1587 1588 1589
1471 1476 1479 1483 1486 1490 1494 1498 1502 1505 1509 1514 1519 1524 1529 1533 1536 1540 1543 1547 1550 1553 1556 1559 1561 1564 1566 1568 1570 1572 1574 1576 1578 1579 1581 1582 1582 1583 1584 1585 1586 1587 1588
1470 1473 1476 1479 1482 1486 1490 1494 1498 1501 1505 1510 1514 1518 1521 1525 1530 1535 1539 1544 1547 1550 1553 1556 1559 1561 1564 1566 1568 1570 1572 1574 1575 1577 1579 1581 1581 1582 1582 1583 1584 1585 1585
1467 1470 1473 1476 1479 1483 1486 1490 1493 1497 1501 1505 1509 1514 1518 1522 1527 1532 1536 1540 1544 1547 1550 1553 1556 1558 1561 1563 1565 1567 1569 1571 1573 1575 1576 1578 1579 1580 1581 1581 1582 1582 1583
1464 1467 1471 1474 1476 1479 1483 1486 1489 1492 1496 1500 1504 1509 1513 1517 1522 1527 1531 1536 1540 1543 1547 1550 1553 1555 1558 1560 1562 1564 1566 1568 1570 1572 1574 1576 1577 1578 1579 1579 1579 1580 1581
1462 1464 1467 1469 1473 1475 1478 1481 1484 1487 1491 1495 1500 1504 1508 1513 1517 1522 1526 1531 1535 1538 1542 1546 1549 1552 1554 1557 1559 1561 1563 1565 1567 1569 1571 1573 1574 1575 1576 1577 1577 1578 1578
1460 1462 1465 1467 1470 1473 1475 1477 1480 1482 1486 1490 1495 1499 1504 1508 1512 1517 1522 1526 1530 1534 1538 1542 1545 1548 1551 1554 1556 1558 1560 1562 1564 1566 1568 1570 1571 1572 1573 1575 1575 1575 1576
1459 1461 1463 1465 1468 1470 1473 1475 1477 1479 1481 1486 1491 1495 1499 1503 1507 1513 1517 1521 1526 1530 1534 1538 1541 1544 1547 1550 1553 1555 1557 1559 1560 1562 1564 1566 1568 1569 1570 1571 1572 1573 1573
1458 1460 1462 1464 1466 1469 1471 1473 1475 1477 1480 1484 1487 1490 1493 1498 1503 1508 1512 1516 1521 1526 1530 1534 1537 1541 1543 1546 1549 1551 1553 1555 1557 1559 1561 1562 1564 1566 1567 1568 1569 1570 1570
1458 1460 1461 1463 1466 1468 1470 1471 1473 1476 1478 1481 1484 1487 1490 1494 1498 1502 1507 1512 1517 1521 1525 1529 1533 1536 1540 1543 1545 1547 1550 1552 1553 1555 1557 1559 1560 1562 1563 1564 1565 1566 1566
1459 1460 1462 1463 1465 1468 1469 1471 1473 1475 1477 1479 1481 1484 1487 1490 1494 1498 1502 1507 1512 1517 1521 1525 1529 1532 1536 1539 1541 1544 1546 1548 1550 1552 1554 1555 1557 1558 1559 1560 1561 1562 1562
1458 1460 1461 1463 1465 1467 1469 1471 1472 1473 1474 1477 1479 1482 1484 1488 1491 1495 1499 1503 1508 1512 1517 1521 1525 1528 1532 1535 1537 1540 1542 1544 1547 1548 1550 1551 1553 1554 1555 1556 1557 1558 1558
1458 1459 1460 1463 1464 1466 1468 1470 1471 1471 1473 1475 1477 1480 1482 1485 1488 1492 1496 1501 1505 1509 1513 1517 1522 1525 1528 1531 1533 1536 1538 1541 1543 1544 1546 1548 1549 1550 1551 1552 1553 1554 1554
1457 1459 1460 1461 1463 1465 1467 1469 1470 1472 1473 1475 1477 1479 1481 1484 1487 1491 1494 1499 1503 1506 1510 1515 1518 1522 1524 1527 1530 1532 1534 1536 1538 1540 1542 1544 1545 1546 1547 1548 1549 1550 1550
1458 1459 1460 1461 1463 1464 1466 1468 1470 1472 1473 1475 1477 1479 1481 1484 1486 1490 1493 1497 1500 1504 1508 1512 1515 1518 1521 1523 1526 1528 1530 1532 1534 1536 1538 1539 1541 1542 1543 1544 1545 1545 1546
1458 1459 1460 1461 1463 1465 1466 1468 1470 1472 1474 1475 1477 1479 1481 1484 1487 1490 1492 1495 1499 1502 1506 1509 1512 1515 1518 1521 1523 1525 1527 1529 1530 1532 1534 1535 1536 1537 1538 1539 1540 1540 1541
1457 1458 1459 1461 1462 1464 1466 1468 1470 1472 1473 1475 1477 1479 1482 1484 1487 1489 1492 1495 1498 1501 1504 1507 1510 1513 1515 1518 1520 1522 1524 1525 1526 1528 1529 1531 1532 1533 1534 1535 1535 1536 1536
1458 1459 1460 1461 1462 1464 1466 1467 1469 1471 1473 1475 1477 1480 1482 1484 1486 1489 1491 1495 1497 1500 1503 1506 1508 1511 1513 1515 1517 1519 1520 1521 1523 1524 1525 1526 1527 1529 1530 1530 1530 1531 1531
1458 1459 1459 1461 1462 1464 1466 1467 1469 1471 1473 1475 1477 1479 1481 1483 1486 1488 1491 1494 1496 1499 1501 1504 1506 1508 1510 1512 1514 1516 1517 1518 1519 1520 1521 1522 1523 1524 1525 1525 1525 1525 1526
1460 1460 1461 1461 1462 1464 1466 1467 1469 1471 1473 1475 1476 1478 1480 1482 1485 1487 1490 1492 1495 1497 1500 1502 1504 1506 1507 1509 1510 1512 1513 1514 1515 1516 1517 1518 1519 1519 1520 1521 1521 1520 1521
1462 1462 1462 1463 1465 1466 1468 1469 1470 1472 1473 1475 1476 1477 1479 1482 1484 1486 1489 1491 1494 1496 1498 1500 1502 1503 1505 1506 1508 1509 1510 1511 1512 1513 1514 1515 1516 1516 1516 1517 1517 1517 1516
1464 1465 1465 1466 1467 1468 1469 1470 1472 1473 1474 1475 1476 1478 1480 1482 1484 1486 1489 1491 1493 1495 1497 1499 1501 1502 1504 1505 1506 1507 1508 1509 1510 1511 1512 1513 1513 1513 1513 1513 1513 1513 1513
1466 1467 1468 1468 1469 1471 1472 1473 1474 1475 1476 1477 1478 1480 1481 1483 1485 1487 1490 1492 1494 1496 1497 1499 1501 1503 1504 1505 1507 1507 1508 1509 1509 1510 1511 1511 1512 1512 1512 1512 1511 1511 1510
1469 1470 1471 1472 1473 1474 1475 1476 1477 1477 1478 1479 1480 1482 1484 1486 1487 1489 1492 1494 1496 1498 1500 1501 1503 1504 1505 1506 1508 1508 1509 1509 1510 1510 1511 1511 1511 1511 1511 1510 1510 1509 1509
1472 1473 1475 1475 1476 1477 1478 1479 1480 1481 1481 1482 1484 1486 1487 1489 1491 1492 1494 1497 1499 1501 1502 1504 1505 1506 1507 1508 1509 1509 1510 1510 1510 1510 1510 1510 1510 1510 1509 1509 1509 1508 1507